Airfield :
LOGIN :

Register | Disclaimer

   EN    FR    IT 

 










Legend :    VFR   Marginal VFR   IFR   Intensive IFR   Very Intensive IFR
Visi :
Ceiling :
>= 8 km
>= 3000ft
5 to 8 km
1000 to 3000 ft
1500m to 5 km
500 to 1000 ft
800 to 1500m
200 to 500 ft
< 800m
< 200 ft
Symbols :   Thunderstorms  Fog  Heavy snow  Heavy precipitations  Wind > 20 kt
SIGMETs :     Misc.  Thunderstorms  Icing  Turbulence  Mountain Waves  Volcanic Ashes







- Airport Elevation : 915 ft
- IATA code : LUG


LSZA - Lugano

CURRENT METAR :
  • 241220Z 19006KT CAVOK 22/01 Q1020 NOSIG

EXPIRED METARs :
  • 241150Z 19005KT CAVOK 21/02 Q1021 NOSIG
  • 241120Z 18003KT 130V230 CAVOK 20/01 Q1021 NOSIG
  • 241050Z 21005KT CAVOK 18/02 Q1022 NOSIG
  • 241020Z VRB03KT CAVOK 17/03 Q1022 NOSIG
  • 240950Z VRB02KT CAVOK 16/02 Q1023 NOSIG

TAF TAF LSZA
Valid from the 24 at 12:00 until the 24 at 21:00 UTC


241125Z 2412/2421 20008KT CAVOK
BECMG 2417/2419 VRB03KT
ATIS : +41 22 417 40 88
No reported NOTAMs for that airfield.



MET'MAP, your aeronautical weather chart ! - Copyright ORBIFLY December 2007 - Disclaimer

ORBIFLY MET'MAP TEAM :

Programming & Development : Alexandra Zaïnal
Concept & Development : Baudouin d'Aumeries
Co-Development & Prog : Marc-Olivier Méhu
Technical & hardware support : Manuel Goepfert

Contact : metmap@orbifly.com




SOURCES & CREDITS :

   NOAA